Regional Weather Roundup
Issued by NWS Sioux Falls, SD

Home | Current Version | Previous Version | Text Only | Print | Product List | Glossary Off
Versions: 1 2 3 4 5 6 7 8 9 10 11 12 13 14 15 16 17 18 19 20 21 22 23 24 25 26 27 28 29 30 31 32 33 34 35 36 37 38 39 40 41 42 43 44 45 46 47 48 49 50

000
ASUS43 KFSD 190810
RWRFSD

WEATHER ROUNDUP FOR SE SOUTH DAKOTA/SW MINNESOTA/NW IOWA
NATIONAL WEATHER SERVICE SIOUX FALLS SD
200 AM CST FRI DEC 19 2014

NOTE: "FAIR" INDICATES FEW OR NO CLOUDS BELOW 12,000 FEET WITH NO
SIGNIFICANT WEATHER AND OR OBSTRUCTIONS TO VISIBILITY.


SDZ038>040-050-052>070-190900-
SOUTHEAST SOUTH DAKOTA

CITY           SKY/WX    TMP DP  RH WIND       PRES   REMARKS
CHAMBERLAIN    CLEAR     19  19  96 SE6       30.07F FOG     WCI  11
HURON          CLOUDY    28  25  88 S9        30.11F WCI  19
MADISON        CLOUDY    25  25 100 S10       30.13F WCI  15
MITCHELL         N/A     29  26  89 MISG      30.14F
SIOUX FALLS    CLOUDY    28  25  88 S7        30.17S WCI  21
WINNER         FAIR      26  19  74 SW3       30.05F
YANKTON        CLOUDY    28  25  86 S8        30.18F WCI  20
$$

MNZ071-072-080-081-089-090-097-098-190900-
SOUTHWEST MINNESOTA

CITY           SKY/WX    TMP DP  RH WIND       PRES   REMARKS
FAIRMONT       CLOUDY    25  19  80 S7        30.22S WCI  17
JACKSON        CLOUDY    28  25  86 S7        30.21S WCI  21
LUVERNE        CLOUDY    30  28  93 S7        30.18F FOG     WCI  23
MARSHALL       CLOUDY    27  23  86 S5        30.19S WCI  21
MONTEVIDEO     CLOUDY    23  23 100 S6        30.20F WCI  16
PIPESTONE      CLOUDY    27  27 100 CALM      30.15S FOG
REDWOOD FALLS  CLOUDY    25  21  85 SE9       30.22S WCI  15
TRACY          CLOUDY    28  26  94 CALM      30.19S FOG
WINDOM         MOCLDY    25  23  93 CALM      30.19F
WORTHINGTON    CLOUDY    27  25  93 S7        30.19S WCI  19
$$

IAZ001>003-012>014-020>022-031-032-NEZ013-014-SDZ071-190900-
NORTHWEST IOWA

CITY           SKY/WX    TMP DP  RH WIND       PRES   REMARKS
CHEROKEE       CLOUDY    29  28  96 S6        30.22S WCI  23
DENISON        CLOUDY    30  30 100 S7        30.20F WCI  23
ESTHERVILLE    CLOUDY    25  23  92 S8        30.21S WCI  16
LE MARS        CLOUDY    30  28  93 S7        30.21S WCI  23
ORANGE CITY    CLOUDY    28  27  93 S6        30.19F FOG     WCI  22
SHELDON        CLOUDY    28  28 100 S9        30.18F FOG     WCI  20
SIOUX CITY     CLOUDY    31  27  85 S6        30.21F WCI  25
SPENCER        CLOUDY    28  24  85 S8        30.21S WCI  20
STORM LAKE     CLOUDY    28  28 100 S6        30.21F FOG     WCI  22
$$

ABBREVIATIONS USED IN REMARKS
   TC - TEMPERATURE IN CELSIUS
  WCI - WIND CHILL INDEX
   HX - HEAT INDEX
  VSB - VISIBILITY



USA.gov is the U.S. government's official web portal to all federal, state and local government web resources and services.